User: anonymous   Login
Location: Unspecified
(0.0000°N, 0.0000°E)
Time: 08:54:01
(UTC+00:00)
Language:

STARLINK-11657 [DTC] - Orbit

View from above orbital plane
View from above orbital plane
View from above satellite
View from above satellite

Ground track
Ground track

The orbit is defined by the following mean orbital elements,

1 63558U          26145.15501566 +.00000000 +00000-0 +18771-2 0 00003
2 63558  43.0004  52.9799 0002481 267.6778  92.3805 15.70934371    06
Epoch (UTC): 25 May 2026 03:43:13
Eccentricity: 0.0002481
inclination: 43.0004°
perigee height: 355 km
apogee height: 358 km
right ascension of ascending node: 52.9799°
argument of perigee: 267.6778°
revolutions per day: 15.70934371
mean anomaly at epoch: 92.3805°

The dashed part of the orbit path shows where the satellite is in the earth's shadow,  

DLR